User: anonymous   Login
Location: Ballingbuur
(53.0000°N, 5.7667°E)
Time: 23:11:24
(UTC+00:00)
Language:

Cosmos 2074 Rocket - Orbit

View from above orbital plane
View from above orbital plane
View from above satellite
View from above satellite

Ground track
Ground track

The orbit data is extracted from the following two-line orbital elements,

1 20578U 90036B   21059.48754306 -.00000063  00000-0 -80415-4 0  9997
2 20578  82.9396  75.9571 0013467 149.9898   2.3868 13.76380567549713
Epoch (UTC): 28 February 2021 11:42:03
Eccentricity: 0.0013467
inclination: 82.9396°
perigee height: 967 km
apogee height: 986 km
right ascension of ascending node: 75.9571°
argument of perigee: 149.9898°
revolutions per day: 13.76380567
mean anomaly at epoch: 2.3868°
orbit number at epoch: 54971

The dashed part of the orbit path shows where the satellite is in the earth's shadow,  

DLR